Theta_e
313 313 314 314 313 314 314 315 315 315 315 315 316 315 314 314 313 312 312 313 310 309 308 306 305 305 304 304 305 307 308 311 313 314 316 317 318 319 320 320 319 318 318 317
314 314 314 315 315 315 315 315 314 315 316 314 313 313 313 313 313 313 310 310 309 307 305 304 302 302 302 302 302 303 304 305 307 309 311 313 313 314 315 316 317 317 316 315
315 316 315 315 316 316 315 315 316 315 313 313 312 313 313 314 310 310 308 307 305 304 303 301 300 300 299 299 300 300 300 302 303 305 307 307 308 308 309 309 308 312 313 314
317 313 313 314 314 314 315 314 313 313 312 313 311 312 313 313 311 310 307 305 303 302 301 301 300 299 298 298 298 297 298 299 300 302 302 303 304 305 305 305 305 308 308 310
318 312 313 313 313 313 314 311 312 312 312 312 313 312 314 313 311 309 307 305 303 302 301 300 299 299 298 297 297 297 296 296 298 299 299 299 300 300 301 302 303 303 305 305
312 310 310 312 312 312 311 311 311 311 313 317 318 317 318 313 311 308 307 305 304 302 300 300 300 298 298 297 296 296 295 295 295 296 296 297 297 298 298 299 299 300 302 303
314 313 311 311 313 311 310 312 319 321 317 320 317 319 320 311 309 309 308 305 301 299 298 297 297 297 297 297 296 296 295 294 294 294 295 295 295 295 295 295 296 297 298 299
321 321 314 310 314 315 313 316 318 320 319 317 316 317 320 310 308 307 304 301 299 298 296 296 296 296 295 295 294 294 294 293 292 293 293 294 293 293 293 294 294 294 294 295
318 319 312 311 313 313 314 316 314 318 313 320 317 316 312 310 309 306 303 299 298 296 295 295 294 295 294 293 293 293 292 292 291 290 291 291 291 291 291 290 290 289 289 292
316 319 315 309 310 309 310 309 314 317 321 314 314 314 315 313 311 305 302 299 297 295 293 293 293 293 292 292 291 291 290 290 289 288 288 289 289 288 287 286 285 285 285 286
314 315 314 314 314 314 310 311 310 312 316 319 317 314 311 309 307 303 300 298 296 294 292 291 291 291 291 290 290 290 289 289 288 288 286 287 288 288 287 286 284 284 284 284
315 316 315 316 312 310 310 314 314 314 315 316 317 317 307 304 302 301 300 298 295 294 291 290 290 290 289 289 289 289 288 288 288 287 286 286 286 286 286 287 285 283 283 284
314 313 307 308 311 312 313 312 312 313 312 316 316 313 304 302 299 299 297 293 292 294 292 290 289 289 289 289 289 289 288 288 287 287 286 286 285 285 285 285 285 284 283 283
310 312 309 307 308 310 309 309 308 309 312 310 310 309 306 304 303 296 294 293 290 290 290 291 289 289 289 289 289 288 288 288 287 287 286 286 285 285 284 284 284 284 283 282
308 305 306 307 307 307 305 304 304 304 304 304 303 302 302 302 303 295 294 293 291 290 289 289 290 288 289 288 288 288 288 288 287 287 286 286 285 285 284 284 283 283 283 282
302 298 301 296 303 303 303 302 302 301 301 302 302 303 301 297 293 292 290 290 290 289 290 289 288 289 288 289 288 288 288 287 287 287 287 286 285 284 283 283 283 283 282 281
300 298 293 293 299 296 293 295 298 298 298 298 298 298 293 294 292 290 289 290 289 289 289 288 288 288 289 289 288 288 287 287 287 287 286 285 284 283 283 282 282 282 281 280
298 294 293 289 288 290 294 293 294 293 294 293 294 291 289 290 290 289 290 288 288 288 288 287 288 289 289 289 287 286 285 285 284 284 283 283 283 283 282 282 281 281 280 279
296 297 292 289 286 292 294 293 293 292 290 292 291 290 290 290 288 288 289 289 288 288 288 289 289 288 288 287 285 284 283 283 282 282 281 281 281 281 280 280 280 280 279 279
290 293 293 285 287 286 291 290 290 290 288 287 288 289 289 289 286 288 289 289 288 289 289 288 287 286 284 283 282 281 280 279 279 278 278 277 277 277 277 277 277 277 277 277
285 286 291 293 293 290 291 289 290 287 289 289 288 289 290 288 288 288 288 288 288 288 286 285 283 282 281 279 278 277 276 276 275 274 273 272 271 271 270 270 271 271 271 272
289 286 285 285 285 288 290 289 288 289 291 289 290 289 288 288 288 288 287 286 285 284 283 281 279 278 277 276 275 274 273 272 271 270 269 268 267 266 266 266 266 266 267 268
288 289 287 288 287 289 288 289 290 290 288 290 289 288 288 288 287 287 285 283 282 281 279 278 276 275 274 273 271 271 270 269 268 266 265 264 264 264 264 264 264 264 264 265
288 289 287 287 289 289 289 289 288 288 289 288 288 287 288 287 286 283 282 281 279 278 276 274 273 272 271 270 269 268 267 266 265 264 263 263 263 263 263 263 263 264 264 264
289 289 287 288 290 289 289 289 289 289 288 287 287 286 284 283 281 281 278 277 276 274 273 271 270 269 269 268 267 266 265 264 263 263 263 262 262 263 263 263 263 264 264 264
290 290 290 290 289 289 289 289 288 288 288 287 285 281 280 279 278 276 275 274 272 271 269 268 268 267 266 265 265 264 264 263 263 262 262 262 261 262 262 262 263 263 265 266
Wind_Speed
5 4 6 10 11 13 10 9 13 11 10 12 11 12 10 14 12 13 13 3 17 19 22 31 32 33 34 36 34 30 22 9 5 4 6 9 11 11 14 17 16 18 20 23
2 6 11 7 9 9 9 11 13 9 8 9 10 15 20 19 12 2 10 13 16 17 19 23 27 29 31 31 31 30 28 23 17 11 7 2 3 2 4 9 15 18 18 21
9 7 12 9 8 10 10 8 11 10 8 7 8 8 8 3 10 17 20 18 19 17 14 13 21 25 26 30 30 29 29 28 26 17 9 7 5 7 7 10 10 12 17 19
8 3 2 5 7 7 8 4 4 6 6 3 8 5 6 8 12 16 16 15 14 13 12 13 18 23 26 27 27 30 31 30 27 24 22 19 14 11 12 13 12 10 13 18
3 6 5 5 6 3 4 3 3 7 5 6 8 5 5 16 11 11 11 12 10 9 10 10 16 20 23 27 28 27 30 32 30 27 24 21 20 17 15 15 16 13 11 15
8 4 3 5 2 2 3 3 8 8 4 2 4 3 4 5 14 7 10 10 9 8 8 10 17 19 21 24 26 26 26 27 27 27 26 25 22 20 20 19 17 17 15 16
6 8 4 3 2 3 1 4 3 3 1 5 7 6 4 5 12 16 14 10 9 7 7 7 9 15 17 19 19 19 23 26 26 25 24 24 23 21 20 20 19 19 18 16
4 2 8 6 5 2 6 2 3 5 2 6 7 5 4 11 12 14 12 9 9 8 7 8 12 14 15 17 19 20 20 19 19 21 23 22 22 22 21 21 21 21 21 19
3 4 3 3 3 3 2 2 3 3 2 2 5 6 5 10 12 11 11 9 7 7 7 7 11 12 13 14 14 14 14 14 15 16 15 15 16 18 19 19 20 22 24 22
3 4 2 2 3 2 2 2 2 3 3 4 6 5 5 11 12 10 8 8 7 6 7 6 9 10 11 10 11 11 11 10 12 13 13 12 12 16 18 20 23 25 27 25
1 3 4 6 3 5 1 1 3 1 3 3 7 5 5 12 10 9 7 6 5 5 5 5 7 8 9 9 11 11 13 13 14 15 15 12 12 12 14 14 18 22 24 25
2 3 5 6 8 7 4 6 4 4 5 4 4 8 7 12 9 7 6 5 5 3 5 4 4 6 8 11 13 13 15 16 14 14 17 17 17 17 17 17 21 22 22 22
2 1 3 8 2 6 5 4 3 3 1 5 5 5 7 10 8 3 6 3 1 1 2 2 5 10 15 18 19 19 19 19 20 21 22 23 25 24 25 22 27 28 28 28
3 4 5 7 5 5 3 5 9 6 4 6 11 14 22 22 4 6 6 4 4 2 4 2 3 5 8 11 14 16 17 21 25 27 28 30 33 33 33 35 33 36 35 32
1 4 6 10 12 7 5 10 15 9 14 10 22 20 23 17 16 6 6 3 2 5 5 5 4 5 9 11 12 16 16 20 24 26 28 32 36 38 41 41 40 39 37 36
1 3 2 5 5 9 12 18 13 17 17 18 19 23 18 7 5 6 7 6 5 6 5 4 5 10 10 12 14 15 18 22 25 25 30 35 38 36 37 36 35 36 37 37
6 3 2 6 3 5 7 12 18 16 18 17 17 16 2 2 3 5 4 3 6 6 4 5 5 9 14 20 12 10 15 20 23 28 34 39 39 37 37 35 34 32 31 31
5 5 3 4 4 2 6 5 2 5 8 5 4 3 4 4 0 2 3 6 4 4 4 5 9 13 18 12 10 13 16 19 25 30 32 34 37 36 37 37 37 38 35 35
9 5 2 3 6 7 14 4 2 4 7 2 4 5 5 4 6 3 4 4 4 6 9 12 13 17 16 11 10 18 24 24 23 24 27 30 31 34 35 35 36 38 38 39
2 6 5 1 4 8 5 4 5 4 6 6 5 4 3 2 3 8 5 5 7 12 12 11 15 16 17 19 21 21 20 22 24 26 26 26 29 31 32 35 37 38 36 37
3 1 11 12 7 6 3 8 4 5 8 3 6 4 4 4 7 12 7 7 8 5 10 13 18 19 17 19 23 23 24 23 26 27 29 31 31 30 32 35 37 39 40 42
6 6 4 2 2 6 2 3 6 5 1 5 6 7 6 8 9 7 8 4 6 9 14 16 18 19 20 22 22 24 27 29 29 29 29 31 33 34 33 34 36 36 36 38
2 7 4 7 5 3 5 5 7 3 5 7 6 10 8 7 7 5 3 5 7 10 11 13 15 22 22 21 22 26 28 30 32 32 32 31 31 31 31 32 33 33 31 32
4 6 3 4 7 11 14 9 8 7 7 7 9 9 4 6 1 1 2 2 5 10 12 14 17 18 24 23 23 25 29 30 31 33 33 31 31 32 31 30 30 30 30 30
7 2 5 6 11 14 15 12 14 15 11 9 3 4 4 4 2 1 1 2 6 9 12 14 17 20 24 26 27 28 30 31 31 31 32 32 30 31 32 32 31 32 34 34
12 16 10 10 14 12 13 10 7 6 5 3 5 4 4 4 2 2 1 5 7 9 15 18 17 20 25 27 29 30 31 29 29 31 31 30 32 31 32 32 34 34 38 40
Wind_Direction
200 220 210 231 234 244 274 314 303 303 308 290 286 303 308 279 279 284 283 287 85 72 62 49 40 39 40 43 41 40 43 47 89 162 197 221 237 238 236 232 237 238 236 232
122 228 242 298 332 314 308 295 289 281 294 335 321 301 280 284 279 14 64 66 77 66 53 46 39 36 39 36 37 43 44 42 50 52 62 43 14 280 272 248 247 243 244 242
217 261 328 305 277 276 271 268 300 315 338 290 302 276 258 57 75 79 63 68 58 57 55 47 44 38 35 38 39 36 40 45 41 40 48 51 20 357 321 313 294 259 246 248
242 158 193 272 271 261 280 272 325 320 341 287 40 273 305 275 86 71 70 64 56 52 47 44 39 42 37 32 39 44 46 48 46 45 39 32 25 14 350 338 333 285 257 248
231 154 177 222 240 245 233 45 302 271 261 304 250 261 252 102 107 97 84 79 74 70 66 51 50 45 39 36 35 37 39 39 43 48 43 34 24 12 2 352 340 327 294 266
254 130 198 215 227 267 60 263 253 249 205 284 300 253 294 29 135 111 103 97 91 77 68 62 54 49 41 34 33 34 33 34 35 37 40 38 32 18 10 1 356 344 323 290
205 200 216 175 217 123 191 264 317 344 85 213 42 354 297 61 138 135 125 108 99 86 77 59 57 49 47 45 43 37 32 27 25 32 32 28 27 27 22 11 357 344 339 336
244 266 153 169 212 95 197 287 176 244 202 265 341 252 252 113 98 102 101 101 87 75 61 64 58 55 50 42 39 39 41 37 29 25 20 18 18 18 13 10 9 4 351 343
305 232 104 141 73 137 88 208 324 276 56 312 227 238 98 121 122 116 103 87 70 63 66 65 56 57 58 46 43 43 39 37 29 28 30 21 15 12 8 4 1 355 354 354
37 295 264 89 106 60 157 23 321 16 266 242 262 267 266 163 141 109 89 89 75 59 60 60 71 67 55 59 51 44 40 41 31 23 22 19 10 10 3 3 0 355 353 350
193 230 270 1 197 206 161 242 193 140 156 242 272 268 98 91 98 97 101 97 93 99 86 68 57 54 54 47 38 32 24 16 10 2 6 2 359 360 354 349 352 349 347 346
82 113 260 233 294 317 290 284 251 207 224 229 267 250 111 113 107 118 139 131 143 137 130 128 86 47 31 21 16 13 7 4 354 348 347 346 345 342 339 327 329 334 333 333
120 153 320 323 86 36 59 357 338 347 185 217 267 260 133 132 136 148 129 122 107 82 60 68 15 22 7 1 354 351 347 343 339 333 334 334 335 328 327 323 316 322 327 330
45 185 201 233 260 74 263 249 256 257 275 299 269 291 291 296 321 148 158 163 93 342 304 290 339 349 339 329 325 322 321 325 326 325 325 325 327 326 321 320 318 320 324 326
6 224 199 252 271 293 274 269 276 265 259 251 269 277 274 293 304 129 167 182 82 1 344 335 264 248 262 268 277 288 295 303 310 311 310 313 316 317 318 317 317 314 313 314
89 249 131 276 219 255 262 258 260 261 261 261 261 268 277 306 60 69 58 37 346 317 313 321 328 311 273 259 261 270 280 287 293 294 298 303 306 307 307 307 306 304 303 305
171 182 102 265 91 24 305 245 244 254 259 263 267 272 5 165 90 66 50 288 269 270 304 320 302 305 303 302 271 283 292 291 288 288 294 296 298 299 298 299 297 295 293 297
167 143 135 250 57 228 241 87 149 230 266 284 272 180 201 173 67 26 272 264 310 336 310 305 303 305 314 325 324 310 303 299 293 290 288 287 289 287 289 292 290 290 291 292
214 193 245 191 202 299 305 306 130 176 271 166 209 208 195 207 345 311 322 20 327 313 304 305 319 326 322 332 334 321 310 304 298 292 291 289 288 287 287 286 286 286 286 286
326 201 189 142 192 220 232 159 132 118 278 242 141 156 176 9 333 291 300 296 282 291 304 339 339 331 329 332 329 322 313 308 303 304 304 304 302 298 296 295 295 294 291 287
109 2 213 229 241 273 214 142 127 111 265 189 145 171 218 246 238 262 269 274 289 327 354 348 332 328 329 333 329 318 313 310 310 311 310 307 305 304 302 298 294 294 293 291
156 163 208 182 213 280 139 75 156 214 153 158 186 214 243 251 265 276 267 327 11 4 356 347 335 323 325 328 328 316 312 315 314 311 307 303 302 300 298 294 292 288 286 284
238 202 184 175 202 186 216 197 225 257 192 226 239 269 254 263 257 278 3 2 345 352 345 336 329 319 317 321 322 312 313 316 312 309 306 304 301 298 294 292 291 290 288 284
263 248 202 62 250 256 260 247 236 249 244 264 272 263 215 242 277 73 51 347 331 330 334 334 327 316 313 320 318 311 312 312 310 307 306 305 302 299 294 290 287 285 284 283
209 102 217 242 252 261 264 261 264 266 265 260 240 187 181 156 142 111 52 340 327 327 325 326 319 313 310 315 314 313 313 313 309 307 307 306 303 299 297 291 288 285 281 278
229 238 241 247 251 249 259 259 253 223 246 268 180 155 125 97 73 34 31 332 332 325 320 315 311 309 308 311 310 311 314 311 309 309 306 303 301 298 296 295 294 289 289 290